STARLINK-31077 (58637 NORAD) Tracking and Keplerian Element Data

This shows tracking and keplerian element data for the satellite.

Feedback or suggestion? Click here.




ElementValue
Catalog58637
NameSTARLINK-31077
Epoch Orbit451
Epoch Day13.25002315
Epoch Year2024
RAAN183.8384
Inclination43.0013
Eccentricity0.0001555
Argument of Perigee263.8756
Mean Anonmoly321.1963
Mean Motion15.5106902
Decay Rate-0.01917958
L11 58637U 23203V 24013.25002315 -.01917958 00000+0 -35782-1 0 9994
L22 58637 43.0013 183.8384 0001555 263.8756 321.1963 15.51069020 4514



Live tracking and technical data element details for STARLINK-31077 (NORAD 58637). STARLINK-31077 can be tracked NOW for your location showing map with azimuth and elevation plus other details from your city location.







IsCatalogInMostPopularTable: catalog: 58637, numindb: 25
Update: records affected: 1



GetName: 58637 STARLINK-31077

Hit Count: updated at: Wed, 17 Apr 2024 03:01:36 GMT